TimeEST,TemperatureF,Dew PointF,Humidity,Sea Level PressureIn,VisibilityMPH,Wind Direction,Wind SpeedMPH,Gust SpeedMPH,PrecipitationIn,Events,Conditions,WindDirDegrees,DateUTC
12:55 AM,14.0,3.9,64,30.11,10.0,NNW,4.6,-,N/A,,Clear,330,2013-03-03 05:55:00
1:55 AM,14.0,3.9,64,30.10,10.0,North,5.8,-,N/A,,Clear,10,2013-03-03 06:55:00
2:55 AM,12.0,3.0,67,30.09,10.0,North,3.5,-,N/A,,Clear,360,2013-03-03 07:55:00
3:55 AM,10.0,1.9,70,30.09,10.0,NW,4.6,-,N/A,,Clear,310,2013-03-03 08:55:00
4:55 AM,8.1,1.0,73,30.09,10.0,NNW,5.8,-,N/A,,Clear,330,2013-03-03 09:55:00
5:55 AM,7.0,-0.0,73,30.10,10.0,North,4.6,-,N/A,,Clear,360,2013-03-03 10:55:00
6:55 AM,7.0,-0.9,70,30.12,10.0,NNE,4.6,-,N/A,,Clear,30,2013-03-03 11:55:00
7:55 AM,7.0,-0.9,70,30.12,10.0,NNE,6.9,-,N/A,,Clear,20,2013-03-03 12:55:00
8:55 AM,8.1,-0.9,67,30.12,10.0,Variable,4.6,-,N/A,,Clear,0,2013-03-03 13:55:00
9:55 AM,10.0,-0.0,64,30.12,10.0,NE,4.6,-,N/A,,Clear,50,2013-03-03 14:55:00
10:55 AM,10.0,1.0,67,30.12,10.0,Calm,Calm,-,N/A,,Clear,0,2013-03-03 15:55:00
11:55 AM,15.1,3.0,59,30.10,10.0,Calm,Calm,-,N/A,,Clear,0,2013-03-03 16:55:00
12:55 PM,16.0,3.9,59,30.09,10.0,Variable,3.5,-,N/A,,Clear,0,2013-03-03 17:55:00
1:55 PM,19.0,5.0,54,30.06,10.0,WSW,8.1,-,N/A,,Clear,250,2013-03-03 18:55:00
2:55 PM,21.0,7.0,55,30.05,10.0,West,8.1,-,N/A,,Clear,280,2013-03-03 19:55:00
3:55 PM,21.0,8.1,57,30.06,10.0,WNW,10.4,-,N/A,,Clear,290,2013-03-03 20:55:00
4:55 PM,19.9,9.0,62,30.06,10.0,WNW,12.7,-,N/A,,Clear,300,2013-03-03 21:55:00
5:55 PM,19.0,10.0,68,30.07,10.0,WNW,11.5,-,N/A,,Clear,300,2013-03-03 22:55:00
6:55 PM,17.1,10.0,74,30.08,10.0,West,9.2,-,N/A,,Clear,280,2013-03-03 23:55:00
7:55 PM,15.1,10.0,80,30.09,10.0,WNW,9.2,-,N/A,,Clear,290,2013-03-04 00:55:00
8:55 PM,14.0,9.0,80,30.08,10.0,NW,6.9,-,N/A,,Clear,310,2013-03-04 01:55:00
9:55 PM,14.0,7.0,74,30.09,10.0,North,4.6,-,N/A,,Clear,350,2013-03-04 02:55:00
10:55 PM,15.1,5.0,64,30.10,10.0,North,6.9,-,N/A,,Clear,10,2013-03-04 03:55:00
11:55 PM,14.0,5.0,67,30.10,10.0,North,3.5,-,N/A,,Clear,350,2013-03-04 04:55:00